User: anonymous
Location: Muenchen
(48.1800°N, 11.5800°E)
Time: 23:31:13
(UTC+02:00)
Language:

Iridium 37 - Orbit

View from above orbital plane
View from above orbital plane
View from above satellite
View from above satellite

Ground track
Ground track

The orbit data is extracted from the following two-line orbital elements,

1 24968U 97056D   14114.32463225  .00000485  00000-0  16605-3 0  7798
2 24968 086.3962 079.4993 0002182 101.2397 258.9044 14.34219042867724
Epoch (UTC): 24 April 2014 07:47:28
Eccentricity: 0.0002182
inclination: 86.3962°
perigee height: 776 km
apogee height: 779 km
right ascension of ascending node: 79.4993°
argument of perigee: 101.2397°
revolutions per day: 14.34219042
mean anomaly at epoch: 258.9044°
orbit number at epoch: 86772

The dashed part of the orbit path shows where the satellite is in the earth's shadow,  

DLR